Weather History for KMHR - June, 2013

Change the Weather History Date:

Friday, June 14, 2013

  Actual Average Record
Temperature  
Mean Temperature 72 °F -  
Max Temperature 84 °F 86 °F 102 °F (2007)
Min Temperature 57 °F 54 °F 48 °F (2003)
Cooling Degree Days 6    
Growing Degree Days 22 (Base 50)    
Moisture  
Dew Point 40 °F    
Average Humidity 37    
Maximum Humidity 59    
Minimum Humidity 9    
Precipitation  
Precipitation 0.00 in - - ()
Sea Level Pressure  
Sea Level Pressure 29.87 in    
Wind  
Wind Speed 6 mph (NW)    
Max Wind Speed 10 mph    
Max Gust Speed 16 mph    
Visibility 10 miles    
Events      
Averages and records for this station are not official NWS values.
T = Trace of Precipitation, MM = Missing Value Source: NWS Daily Summary

Daily Weather History Graph

Daily Weather History Graph

Search for Another Location

Airport or City:

Trip Planner

Search our weather history database for the weather conditions in past years. The results will help you decide how hot, cold, wet, or windy it might be!

Date:

Astronomy

Jun. 14, 2013 Rise Set
Actual Time 5:40 AM PDT 8:30 PM PDT
Civil Twilight 5:08 AM PDT 9:02 PM PDT
Nautical Twilight 4:28 AM PDT 9:42 PM PDT
Astronomical Twilight 3:42 AM PDT 10:28 PM PDT
Moon 11:17 AM PDT (6/14) No Moon Set
Length of Visible Light 15h 54m
Length of Day
14h 50m
Waxing Crescent, 31% of the Moon is Illuminated
Jun 14
Waxing Crescent
Jun 16
First Quarter
Jun 23
Full
Jun 29
Last Quarter
Jul 8
New

Hourly Weather History & Observations

Time (PDT) Temp. Dew Point Humidity Pressure Visibility Wind Dir Wind Speed Gust Speed Precip Events Conditions
12:46 AM 68.0 °F 48.2 °F 49% 29.94 in 10.0 mi WNW 5.8 mph - N/A   Clear
1:46 AM 62.6 °F 46.4 °F 55% 29.93 in 10.0 mi NNW 3.5 mph - N/A   Clear
2:46 AM 64.4 °F 44.6 °F 49% 29.91 in 10.0 mi NW 5.8 mph - N/A   Clear
3:46 AM 60.8 °F 46.4 °F 59% 29.91 in 10.0 mi NNW 4.6 mph - N/A   Partly Cloudy
4:46 AM 60.8 °F 44.6 °F 55% 29.91 in 10.0 mi NW 8.1 mph - N/A   Partly Cloudy
5:46 AM 59.0 °F 44.6 °F 59% 29.91 in 10.0 mi NNW 8.1 mph - N/A   Scattered Clouds
6:45 AM 59.0 °F 41.0 °F 51% 29.92 in 10.0 mi NNW 5.8 mph - N/A   Scattered Clouds
7:45 AM 64.4 °F 39.2 °F 40% 29.92 in 10.0 mi NW 9.2 mph - N/A   Scattered Clouds
8:47 AM 68.0 °F 37.4 °F 33% 29.92 in 10.0 mi NW 9.2 mph - N/A   Scattered Clouds
9:51 AM 71.6 °F 37.4 °F 29% 29.91 in 10.0 mi NNW 10.4 mph 16.1 mph N/A   Scattered Clouds
10:47 AM 75.2 °F 37.4 °F 25% 29.90 in 10.0 mi NW 8.1 mph - N/A   Scattered Clouds
11:45 AM 77.0 °F 35.6 °F 22% 29.90 in 10.0 mi NW 8.1 mph - N/A   Scattered Clouds
12:45 PM 80.6 °F 37.4 °F 21% 29.89 in 10.0 mi NW 6.9 mph - N/A   Scattered Clouds
1:45 PM 82.4 °F 39.2 °F 21% 29.87 in 10.0 mi NW 6.9 mph - N/A   Scattered Clouds
2:55 PM 84.2 °F 35.6 °F 18% 29.85 in 10.0 mi West 8.1 mph - N/A   Scattered Clouds
6:45 PM 84.2 °F 19.4 °F 9% 29.78 in 10.0 mi Calm Calm - N/A   Scattered Clouds
7:50 PM 84.2 °F 28.4 °F 13% 29.79 in 10.0 mi SW 8.1 mph - N/A   Scattered Clouds
8:45 PM 73.4 °F 41.0 °F 31% 29.79 in 10.0 mi SSW 6.9 mph - N/A   Partly Cloudy
9:50 PM 68.0 °F 42.8 °F 40% 29.80 in 10.0 mi SSW 5.8 mph - N/A   Partly Cloudy
10:55 PM 66.2 °F 41.0 °F 40% 29.81 in 10.0 mi ESE 3.5 mph - N/A   Partly Cloudy
11:45 PM 57.2 °F 42.8 °F 59% 29.81 in 10.0 mi SE 5.8 mph - N/A   Partly Cloudy